| time (UTC) | temp F | wind direction | speed knots | gust knots | rain 1hr in | rain 24hr in | rain mn in | humidity % | barometer mb |
| 20260508144013 | 63 | 220 | 3.5 | 8.7 | 0.00 | 0.00 | 0.00 | 80 | 1011.9 |
| 20260508141012 | 61 | 206 | 2.6 | 4.3 | 0.00 | 0.00 | 0.00 | 81 | 1012.1 |
| 20260508134011 | 60 | 200 | 1.7 | 4.3 | 0.00 | 0.00 | 0.00 | 83 | 1012.4 |
| 20260508131010 | 59 | 204 | 1.7 | 3.5 | 0.00 | 0.00 | 0.00 | 82 | 1012.4 |
| 20260508121030 | 58 | 237 | 0.9 | 2.6 | 0.00 | 0.00 | 0.00 | 84 | 1012.4 |
| 20260508053316 | 57 | 199 | 0.9 | 0.9 | 0.00 | 0.00 | 0.00 | 62 | 1013.9 |
| 20260508050315 | 59 | 202 | 1.7 | 1.7 | 0.00 | 0.00 | 0.00 | 58 | 1013.3 |
| 20260508043314 | 61 | 200 | 2.6 | 2.6 | 0.00 | 0.00 | 0.00 | 54 | 1013.2 |
| 20260508040313 | 62 | 193 | 3.5 | 3.5 | 0.00 | 0.02 | 0.00 | 51 | 1012.9 |
| 20260508033313 | 64 | 190 | 4.3 | 5.2 | 0.00 | 0.12 | 0.00 | 50 | 1012.3 |
| 20260508030311 | 65 | 187 | 4.3 | 8.7 | 0.00 | 0.27 | 0.00 | 48 | 1011.7 |
| 20260508023310 | 67 | 183 | 5.2 | 10.4 | 0.00 | 0.31 | 0.00 | 42 | 1010.9 |
| 20260508020309 | 69 | 187 | 2.6 | 4.3 | 0.00 | 0.31 | 0.00 | 36 | 1010.1 |
| 20260508003306 | 76 | 183 | 4.3 | 7.8 | 0.00 | 0.31 | 0.00 | 30 | 1008.7 |
| 20260508000305 | 77 | 181 | 3.5 | 6.1 | 0.00 | 0.31 | 0.00 | 30 | 1008.7 |
| 20260507233304 | 77 | 153 | 1.7 | 4.3 | 0.00 | 0.31 | 0.00 | 29 | 1008.6 |
| 20260507230303 | 77 | 181 | 1.7 | 4.3 | 0.00 | 0.31 | 0.00 | 29 | 1008.9 |
| 20260507223302 | 77 | 207 | 3.5 | 7.8 | 0.00 | 0.31 | 0.00 | 29 | 1009.3 |
| 20260507220301 | 77 | 134 | 0.9 | 4.3 | 0.00 | 0.31 | 0.00 | 29 | 1009.4 |
| 20260507213300 | 77 | 102 | 0.9 | 4.3 | 0.00 | 0.31 | 0.00 | 30 | 1009.8 |
| 20260507210259 | 76 | 231 | 1.7 | 7.8 | 0.00 | 0.31 | 0.00 | 30 | 1010.6 |
| 20260507203258 | 74 | 99 | 0.9 | 2.6 | 0.00 | 0.31 | 0.00 | 32 | 1011.6 |
| 20260507200257 | 73 | 59 | 0.9 | 5.2 | 0.00 | 0.31 | 0.00 | 33 | 1012.4 |
| 20260507193256 | 72 | 213 | 0.9 | 7.0 | 0.00 | 0.31 | 0.00 | 35 | 1013.2 |
| 20260507190255 | 69 | 254 | 2.6 | 10.4 | 0.00 | 0.31 | 0.00 | 38 | 1014.1 |
| 20260507183254 | 66 | 167 | 0.9 | 3.5 | 0.00 | 0.31 | 0.00 | 41 | 1015.2 |
| 20260507180253 | 67 | 146 | 0.9 | 5.2 | 0.00 | 0.31 | 0.00 | 40 | 1015.7 |
| 20260507173253 | 64 | 213 | 2.6 | 6.1 | 0.00 | 0.31 | 0.00 | 45 | 1017.1 |
| 20260507170251 | 62 | 216 | 0.9 | 3.5 | 0.00 | 0.31 | 0.00 | 45 | 1017.9 |
| 20260507163250 | 61 | 120 | 0.9 | 2.6 | 0.00 | 0.31 | 0.00 | 47 | 1018.7 |
| 20260507160249 | 58 | 107 | 0.0 | 1.7 | 0.00 | 0.32 | 0.00 | 51 | 1019.5 |
| 20260507153248 | 57 | 115 | 0.9 | 4.3 | 0.00 | 0.36 | 0.00 | 54 | 1019.9 |
| 20260507150118 | 55 | 119 | 0.9 | 3.5 | 0.00 | 0.36 | 0.00 | 58 | 1020.4 |